Wind_Speed
42 43 43 40 39 37 36 37 36 34 33 34 33 31 31 31 29 29 34 36 33 32 32 27 29 34 33 33 32 27 24 25 26 26 26 25 24 25 25 25 25 22 20 20 19 19 19 19 20 19 19 19 18 17 18 20 21 21 22 22 22 21 20 20 20 19 19 20 20 20 20 20 21 24 26 28 29 30 30 29 28 29 29 30 31 29
43 44 43 39 38 37 37 38 36 36 38 38 36 32 31 30 27 30 36 37 35 30 25 23 28 33 31 32 35 33 32 33 32 31 29 28 27 27 26 26 25 22 21 19 18 19 20 20 20 19 19 18 18 18 18 20 21 21 22 22 22 22 21 20 20 20 20 20 21 21 21 21 21 24 25 25 27 28 29 29 29 30 30 31 31 29
45 45 42 39 39 38 38 38 36 39 41 39 35 30 30 30 27 32 40 39 35 28 24 29 35 32 30 32 33 34 36 35 34 32 30 29 29 28 27 27 25 23 20 18 19 20 20 21 20 19 19 18 18 18 19 20 21 21 22 22 22 22 22 21 21 21 21 21 21 22 22 20 20 23 25 25 25 25 27 28 28 29 30 31 31 30
44 43 41 40 40 40 40 37 37 41 40 37 34 30 29 28 24 32 43 40 37 32 29 34 36 29 29 31 31 34 36 35 32 31 31 29 28 28 28 27 24 22 21 19 19 21 21 21 20 20 19 18 18 18 19 21 21 21 22 22 22 22 22 22 21 21 21 21 21 21 22 21 22 24 26 25 23 24 26 27 27 26 28 29 30 30
42 40 40 41 41 42 40 38 39 40 38 38 36 32 27 23 25 36 44 41 38 37 34 34 33 31 30 29 30 33 35 35 32 30 31 30 29 29 29 28 25 24 23 22 21 22 22 21 20 19 19 19 19 19 20 21 22 22 21 21 21 22 23 21 20 20 20 21 21 21 22 24 25 25 25 24 24 25 27 28 30 30 30 30 30 30
41 41 43 43 42 43 41 39 40 38 37 38 37 36 28 23 28 36 42 42 39 39 39 37 35 34 33 30 29 31 33 35 34 30 31 31 31 31 30 28 25 25 24 22 22 22 21 20 20 20 20 20 19 20 21 22 23 23 22 21 21 21 22 20 19 20 20 20 21 21 23 25 26 24 23 23 23 25 28 30 32 34 34 33 32 31
42 44 44 44 44 43 41 39 39 38 37 37 37 37 30 25 27 30 38 44 40 37 37 38 35 31 35 36 31 29 29 32 34 32 31 32 32 31 29 27 25 25 24 22 21 21 20 20 20 20 20 19 19 20 22 23 23 23 22 21 21 21 21 20 19 20 20 21 21 22 22 23 25 24 23 23 23 25 28 31 32 33 33 33 33 31
45 46 46 47 46 43 40 40 39 38 37 34 35 37 33 31 29 28 37 40 34 32 34 36 33 28 32 37 34 31 27 27 31 33 33 33 33 31 29 28 26 26 24 22 21 20 20 20 20 20 20 19 20 21 22 23 24 23 23 22 22 22 21 20 19 19 20 21 22 22 22 23 24 25 25 24 24 25 27 30 33 33 32 31 31 31
45 45 48 47 44 42 41 41 39 38 37 32 30 36 37 37 34 31 37 34 28 28 29 33 34 30 33 38 37 34 29 28 30 33 34 34 33 32 29 28 27 26 25 23 21 21 20 19 19 19 19 20 21 22 23 24 24 24 23 23 22 21 20 19 19 20 20 22 23 23 23 24 24 25 26 26 26 26 28 30 33 34 34 32 30 31
44 45 49 46 42 42 40 39 39 38 38 28 22 32 39 38 36 35 34 30 27 28 29 33 34 31 33 39 38 35 34 33 31 32 34 35 34 32 30 28 27 26 25 23 22 21 19 18 19 19 20 20 21 23 25 25 25 24 23 22 21 20 20 19 19 20 21 22 23 24 24 25 25 25 26 27 28 28 29 30 33 34 35 35 33 33
45 48 50 45 41 41 39 39 39 38 36 27 18 26 37 38 37 36 30 24 24 28 30 33 35 31 32 39 38 34 37 35 31 32 33 34 34 32 29 28 28 27 25 24 22 20 19 18 19 20 20 21 23 24 25 25 25 24 23 21 20 19 19 19 20 21 21 22 24 25 25 26 26 27 27 29 29 29 30 31 32 33 34 36 35 35
49 51 49 45 41 40 39 38 39 38 35 29 22 24 32 37 37 36 33 28 28 30 30 33 38 34 32 37 38 35 37 34 31 31 31 32 33 30 29 28 28 28 26 24 22 20 19 19 19 20 21 23 24 25 25 25 24 24 23 21 20 20 19 20 20 21 22 23 24 25 26 26 27 27 29 30 30 30 31 31 33 33 33 35 36 36
50 50 49 46 42 42 41 38 39 40 39 35 31 28 30 35 38 39 39 38 38 35 30 28 31 32 32 39 42 39 37 32 30 32 30 31 31 29 29 29 29 29 26 24 22 20 20 19 20 21 23 24 25 26 25 24 24 24 23 22 21 20 20 20 21 21 23 24 25 25 25 26 26 27 29 30 31 31 31 32 33 34 34 35 37 38
44 45 48 47 44 44 42 38 38 41 44 44 41 36 33 35 39 42 41 41 41 38 31 22 23 31 37 41 44 41 35 29 29 31 30 30 30 29 29 30 29 28 26 24 22 21 21 21 22 23 24 25 26 25 25 24 24 24 23 23 22 21 21 21 22 22 23 23 24 24 24 24 26 27 29 30 31 32 32 33 34 36 37 36 37 37
45 45 48 47 47 46 43 40 36 39 45 47 44 40 36 36 38 42 41 39 39 39 32 23 25 34 41 42 43 42 37 33 30 30 30 29 29 30 31 30 30 28 26 25 24 23 23 23 24 24 25 26 26 26 25 24 24 24 24 23 22 22 22 22 23 23 23 23 24 24 23 24 26 28 30 31 32 33 34 35 35 37 38 37 37 37
49 48 46 45 47 45 44 44 39 38 45 47 43 41 40 37 33 32 35 36 33 32 32 30 32 38 40 40 40 39 39 36 33 32 31 31 31 31 32 31 30 28 27 27 26 24 24 24 25 25 26 26 26 25 25 24 24 24 23 23 23 23 23 23 24 23 24 24 25 25 26 26 27 29 30 32 33 34 36 37 37 38 39 39 39 37
47 44 42 44 47 46 45 46 41 38 43 44 44 45 41 36 28 22 28 35 31 26 30 35 38 40 40 39 38 37 38 37 35 34 33 33 33 32 32 31 29 29 29 28 26 25 25 25 26 26 26 25 24 24 24 24 24 23 23 23 23 23 24 24 24 24 24 25 26 26 27 27 28 28 29 31 32 34 36 38 39 39 40 41 40 39
43 35 34 41 45 46 44 44 39 35 37 39 43 46 38 30 29 23 19 28 33 30 29 33 37 39 41 42 41 36 35 37 37 35 34 34 33 32 31 30 29 29 29 28 27 26 26 26 27 27 26 25 24 23 22 23 23 23 23 23 23 24 24 25 25 24 24 24 25 26 27 28 29 29 29 29 30 31 33 35 38 39 39 40 39 39
39 29 27 35 40 42 42 43 41 37 36 35 35 40 38 31 31 28 21 24 33 36 34 32 34 37 38 40 41 36 33 36 36 35 34 33 33 32 31 31 30 30 29 29 28 28 28 29 29 29 27 26 25 24 24 23 23 23 23 23 24 25 25 26 25 25 24 24 25 27 28 29 29 29 29 28 29 30 31 33 36 37 37 37 36 34
38 30 27 31 35 39 41 44 46 43 39 36 30 31 38 36 29 28 29 28 29 34 36 34 33 36 36 36 37 36 35 35 35 35 33 32 33 33 33 32 31 31 30 30 30 30 31 32 31 30 28 27 27 27 27 26 25 24 24 24 25 25 26 26 25 25 25 26 27 28 29 28 28 28 28 28 28 29 31 32 35 37 37 37 36 33
37 32 29 28 29 35 42 44 46 43 41 42 38 32 39 41 31 28 31 29 26 29 33 35 36 37 38 37 33 34 37 36 34 34 34 34 34 33 33 33 32 32 32 32 33 33 34 34 33 31 30 29 28 27 27 27 26 25 24 25 25 26 26 26 26 27 27 29 29 29 29 28 28 28 28 28 28 29 30 31 33 35 36 37 37 36
36 34 32 28 26 34 41 41 40 39 39 44 44 38 39 42 35 31 32 28 25 25 24 29 36 38 38 38 34 31 34 36 34 32 34 36 36 35 35 34 34 35 35 34 35 35 35 35 34 33 32 30 28 27 27 26 26 25 25 25 26 26 26 27 27 28 28 29 29 29 29 29 28 28 28 28 28 28 29 30 32 33 33 34 36 37
34 35 35 30 25 28 35 36 37 38 37 39 41 36 34 39 39 36 34 30 27 25 21 22 32 38 38 38 36 31 30 32 33 33 34 34 35 36 36 36 36 37 36 36 35 36 36 36 35 34 33 30 28 27 26 26 26 26 26 26 26 26 27 27 27 28 28 28 28 28 28 29 29 29 29 29 28 28 29 29 30 30 31 32 34 35
35 36 38 33 25 23 27 31 36 39 36 35 39 37 30 32 38 38 35 32 32 30 26 23 28 35 37 37 36 32 28 29 31 32 33 33 33 34 35 36 37 36 36 36 36 37 37 37 36 34 32 30 27 26 26 26 26 27 27 27 27 27 27 28 28 28 28 27 27 27 28 28 29 29 29 29 29 28 28 29 29 29 29 29 31 33
38 37 37 34 28 26 28 31 36 40 37 34 37 40 35 27 30 37 35 30 31 31 27 26 29 30 30 32 33 32 30 31 31 31 31 31 32 33 34 35 35 35 36 36 37 37 37 37 35 33 30 28 26 25 26 26 27 27 27 28 28 28 28 29 28 28 28 27 27 27 28 29 29 29 29 29 29 28 28 28 29 29 28 28 29 30
38 37 37 36 32 31 34 34 35 39 39 35 32 37 39 29 25 34 35 29 30 28 24 26 31 30 27 26 27 27 28 29 31 31 31 31 32 33 34 34 35 35 36 37 37 37 36 35 32 30 28 27 26 26 26 27 27 28 28 29 29 29 29 28 28 28 28 27 28 28 29 29 29 29 29 29 29 29 28 28 29 29 28 27 29 29
38 39 39 39 35 32 31 30 31 34 36 35 31 31 36 34 27 30 32 30 29 26 22 26 32 34 33 30 27 26 26 26 27 29 30 31 32 33 34 34 34 35 36 36 36 35 34 32 29 28 28 27 27 27 27 28 28 28 29 29 29 29 28 28 28 28 29 29 29 30 30 29 29 29 29 29 29 29 29 29 29 29 28 27 28 28
40 40 39 39 36 32 30 29 29 30 31 32 32 29 32 35 32 31 34 31 28 27 26 28 31 31 31 29 28 28 28 28 27 28 29 30 31 32 32 33 33 33 34 33 33 32 31 29 28 28 28 28 28 28 28 29 29 29 29 30 30 29 29 29 29 30 31 31 31 31 30 29 29 28 28 29 29 29 29 29 30 30 29 27 27 28
39 38 36 36 35 32 31 31 29 28 29 31 32 31 31 33 32 32 36 35 31 29 28 27 28 28 26 24 24 24 25 26 26 27 28 29 30 30 30 31 31 31 31 30 30 29 29 29 28 28 28 29 29 29 29 30 30 30 31 31 31 31 30 31 31 32 33 33 33 32 31 30 29 29 29 29 29 30 30 30 30 31 32 29 27 27
39 38 36 36 36 33 30 30 29 30 31 30 31 32 33 33 31 31 35 36 31 28 25 23 23 26 26 24 23 22 23 23 24 25 26 28 29 29 29 29 29 29 28 28 28 28 28 28 28 29 29 30 30 30 30 31 31 32 32 33 32 32 32 33 33 33 33 33 34 33 32 32 32 32 32 31 30 31 31 31 30 31 33 32 29 28
40 38 37 37 36 34 31 30 30 32 30 27 28 31 33 34 34 33 34 32 28 25 21 18 18 21 22 23 23 23 23 23 23 24 24 25 26 27 27 27 27 27 27 27 27 27 28 28 29 30 30 31 31 32 32 32 33 34 34 34 33 33 34 34 35 35 35 35 34 34 34 34 35 35 35 34 33 33 33 33 31 31 32 33 32 30
36 35 37 38 35 33 32 31 31 31 28 25 26 28 30 32 32 31 29 28 27 25 22 19 17 17 18 20 21 22 22 22 22 22 22 22 23 24 24 24 25 26 26 27 27 27 28 29 29 30 31 32 32 33 33 34 34 35 35 35 35 36 36 37 37 37 36 36 36 35 35 35 35 36 35 35 35 35 35 35 34 32 31 32 32 31
34 33 36 38 37 35 33 29 28 28 27 26 25 24 24 26 27 29 28 27 27 26 25 22 20 17 18 20 20 21 21 21 21 22 22 22 22 23 23 24 25 26 26 27 28 28 29 29 30 31 32 32 33 33 34 35 35 35 36 37 37 38 38 38 38 38 38 38 37 37 36 36 36 36 36 37 37 36 36 36 35 34 32 31 31 31
33 32 35 37 36 36 33 29 28 30 30 30 27 26 26 27 28 28 28 27 27 26 24 22 21 19 20 21 21 21 21 22 22 22 23 23 23 23 23 24 25 26 27 28 29 30 30 31 32 32 33 33 33 34 34 35 35 36 36 37 38 38 38 39 39 39 39 40 39 39 39 38 38 38 38 38 38 37 36 36 36 35 33 32 31 31
32 32 34 34 33 32 30 29 31 33 32 31 30 30 30 30 29 28 27 27 26 25 24 23 22 21 20 20 21 21 21 22 22 22 23 23 24 25 25 26 27 28 29 30 31 32 32 32 33 33 34 34 34 34 35 35 35 35 36 36 37 38 38 39 40 41 41 42 42 42 41 41 40 40 40 39 38 36 34 33 35 35 35 33 33 32
31 32 33 33 31 29 29 31 33 33 32 31 31 32 31 30 30 30 30 29 28 27 26 25 23 22 21 21 21 21 21 21 22 22 23 24 25 26 26 27 28 29 30 31 32 33 33 33 33 33 33 34 34 34 34 34 34 35 36 37 38 39 40 41 42 42 43 43 43 43 43 42 42 41 41 40 39 38 36 35 34 35 36 35 34 34
31 32 32 31 29 28 30 33 35 34 32 32 31 30 31 31 32 32 31 30 29 28 26 25 23 23 23 23 23 23 22 23 25 26 25 25 26 26 26 27 28 29 30 31 31 32 32 33 33 33 32 33 33 33 33 34 35 35 36 37 38 38 39 40 41 42 42 43 43 44 44 43 43 43 43 42 42 41 40 38 36 35 36 36 36 35
30 30 31 29 27 27 29 32 34 34 33 32 31 31 32 33 33 31 31 30 29 27 26 25 25 25 25 25 25 26 25 25 26 28 27 26 26 26 26 27 28 29 30 31 32 32 32 33 33 32 32 33 33 33 34 34 35 36 36 37 38 38 39 39 40 40 41 42 43 43 44 44 44 44 43 43 43 42 41 40 38 37 36 36 36 35
30 31 31 30 28 28 28 28 30 32 31 30 30 31 31 31 31 30 30 30 29 27 26 26 26 26 25 25 26 27 27 25 24 25 25 26 27 27 28 29 30 30 31 32 32 32 33 33 33 34 34 35 35 35 35 35 36 36 37 38 39 40 41 41 42 42 43 43 44 45 45 46 46 46 46 46 46 45 44 44 43 42 40 39 38 37
30 30 30 30 29 28 28 28 30 31 29 28 27 27 27 28 28 28 29 29 29 28 27 27 27 26 26 26 26 26 26 26 26 26 26 26 27 28 29 29 30 31 31 31 32 32 32 32 33 33 34 34 35 35 35 36 37 38 39 40 40 41 42 43 44 45 45 46 47 47 48 49 49 49 50 50 50 50 50 49 48 48 46 44 42 42
28 28 27 28 29 28 28 29 30 30 28 28 28 28 27 28 29 31 32 31 29 28 28 28 28 27 27 27 27 26 27 28 28 28 27 27 27 28 29 30 30 31 31 30 30 30 30 30 30 31 31 32 33 34 35 36 37 38 39 40 41 42 43 44 45 46 47 48 49 50 51 51 52 53 53 53 53 53 53 53 52 51 50 49 47 45
26 25 24 26 28 28 28 29 29 27 26 27 29 29 29 30 31 33 32 30 28 28 29 29 28 28 27 27 27 27 28 28 28 28 27 27 28 28 29 29 29 28 28 27 27 27 27 27 28 28 29 31 32 33 34 35 36 37 38 39 40 42 43 44 45 46 47 48 49 50 51 52 53 54 54 54 55 55 55 55 55 54 53 51 50 48
24 24 24 26 26 26 27 28 27 25 25 26 28 30 30 31 30 30 29 27 27 27 27 27 27 26 26 26 26 26 26 26 27 27 27 27 28 28 27 27 26 25 25 25 25 25 26 26 27 28 29 30 31 32 33 34 35 36 37 38 39 41 42 43 44 45 46 47 48 50 51 52 52 53 54 54 55 55 55 55 56 56 55 54 52 50
24 24 25 26 26 26 27 27 25 23 24 26 27 28 28 28 27 27 27 27 27 27 27 26 26 26 26 26 25 25 25 25 25 26 26 26 26 26 25 24 23 23 23 23 24 24 25 26 26 27 28 29 30 30 31 32 33 35 36 37 39 40 41 43 44 45 46 48 49 50 51 52 53 54 54 55 55 56 56 56 56 56 56 56 54 53
23 24 22 23 25 27 27 26 24 23 25 25 25 25 25 26 26 27 27 26 26 26 26 26 25 25 25 25 25 25 25 25 25 25 24 24 24 23 22 21 21 21 21 22 22 23 23 24 24 25 26 26 27 29 30 31 32 34 35 36 37 38 40 41 43 44 46 47 49 50 51 52 53 54 55 56 56 56 56 56 56 56 56 56 56 55
22 23 24 24 25 27 28 27 26 26 26 26 25 25 25 26 26 26 26 26 26 25 24 24 24 23 24 24 24 24 24 23 23 22 21 21 20 20 19 19 19 19 19 19 20 20 21 21 22 23 24 25 26 27 28 29 29 30 31 31 33 34 35 37 38 40 42 44 45 47 49 50 52 53 54 55 56 57 57 57 56 56 56 55 55 55
24 24 25 26 26 26 27 27 27 27 26 25 26 26 26 26 26 26 26 26 25 25 24 23 23 23 23 22 22 21 21 21 20 19 19 18 18 17 17 17 17 17 17 17 18 19 19 20 21 22 22 23 23 22 22 22 23 23 24 26 27 29 30 32 33 35 36 38 40 41 43 45 47 49 51 52 53 54 55 56 56 55 55 55 54 54
24 24 25 25 26 26 26 26 26 26 26 25 25 25 25 25 25 25 25 25 25 24 24 23 23 23 22 21 21 21 20 19 19 18 17 16 15 15 15 15 15 16 16 17 17 18 18 18 18 18 17 16 16 16 16 17 18 20 21 22 24 25 27 28 30 31 32 33 34 36 37 38 40 42 43 45 47 48 49 51 51 52 52 52 52 52
21 22 23 24 25 26 26 26 25 25 25 25 24 24 25 25 24 24 24 25 24 24 23 23 23 23 22 22 22 21 19 18 17 16 15 14 14 14 14 14 15 15 15 15 15 15 14 13 12 11 11 11 12 13 14 16 17 19 20 21 23 24 26 27 28 30 31 32 33 33 34 34 35 36 37 38 39 40 41 43 44 45 46 47 48 49
21 21 22 24 25 25 25 26 26 25 25 25 24 24 24 24 24 24 23 23 23 23 23 23 23 22 22 21 20 19 18 16 15 14 14 14 14 14 13 13 13 13 12 12 11 10 8 7 7 7 9 10 12 13 15 16 17 19 20 21 23 24 26 27 29 30 32 33 34 35 34 34 34 34 34 35 36 36 36 36 37 38 39 40 41 43
21 22 22 23 23 24 25 24 24 24 24 24 24 24 24 23 23 23 23 23 22 22 22 21 21 21 20 19 18 17 15 14 13 13 13 13 13 12 12 11 11 10 9 7 6 4 4 5 6 8 10 11 13 15 16 17 18 19 20 21 22 24 26 28 30 31 33 35 36 37 37 36 35 34 33 34 34 35 35 35 34 34 34 35 36 38
Wind_Direction
223 225 227 227 229 228 224 221 218 221 225 227 224 218 222 222 215 226 238 237 230 225 231 224 215 228 236 235 235 236 236 230 227 229 231 235 236 238 240 241 246 248 249 252 252 255 256 255 253 253 255 255 261 269 275 281 283 284 285 288 291 293 296 297 295 294 294 296 297 298 297 296 298 301 294 285 281 278 276 279 282 285 287 289 290 289
223 226 228 226 227 227 224 222 218 218 222 224 223 218 222 222 212 220 234 236 235 228 219 215 221 229 231 235 236 235 239 240 238 238 239 239 238 237 237 241 247 251 251 251 253 254 252 252 252 253 256 258 263 270 275 279 281 284 287 290 290 292 294 295 295 295 297 298 297 296 295 292 298 305 299 286 279 276 274 276 281 285 288 289 289 288
224 226 226 223 224 225 224 223 219 220 224 224 224 220 221 220 211 225 235 235 238 225 199 209 225 229 229 233 234 233 239 242 240 241 242 241 241 240 239 241 246 250 250 248 248 249 250 252 254 255 259 264 267 272 277 280 283 286 288 289 289 291 293 293 295 296 297 297 295 294 293 292 299 308 306 294 284 281 279 280 286 293 293 288 286 287
225 226 225 223 223 224 224 221 219 222 224 223 223 217 218 219 209 226 235 232 233 224 209 224 233 232 234 235 233 233 237 239 238 239 243 242 240 240 240 240 242 245 245 244 244 247 251 254 257 259 263 268 271 275 280 283 285 286 285 286 287 289 291 292 294 296 297 296 294 292 290 291 295 300 305 304 298 292 287 286 290 295 296 291 287 288
225 225 225 224 223 225 224 221 220 223 222 221 219 212 209 207 204 222 234 232 231 229 224 229 231 229 232 232 233 236 237 238 236 237 240 240 237 237 238 239 238 240 241 240 242 246 252 257 261 265 267 270 275 279 283 285 286 286 284 284 286 287 289 291 292 293 294 294 291 289 288 289 293 296 300 303 300 294 289 288 288 290 294 294 292 290
221 222 223 223 224 224 223 221 222 222 221 220 219 213 199 193 208 224 236 235 231 233 232 229 229 231 232 231 233 238 239 238 237 235 235 236 236 236 236 237 236 237 240 240 244 248 254 260 263 267 269 272 278 282 285 287 287 286 285 284 284 284 285 286 286 286 287 287 286 285 286 288 293 296 297 298 297 294 292 289 288 288 292 293 292 290
220 221 222 222 223 223 223 223 222 220 220 220 221 217 199 193 209 220 231 234 231 233 235 232 231 233 234 234 234 236 236 235 235 233 232 232 234 235 235 235 234 235 239 241 245 250 254 259 264 267 271 274 279 284 285 286 286 285 284 283 282 281 282 283 283 282 282 283 284 284 286 288 292 295 296 296 294 292 291 289 288 288 290 292 291 289
219 221 222 221 222 222 222 223 221 219 219 218 221 217 203 199 205 213 227 233 233 233 235 235 231 228 236 237 233 232 230 230 232 230 229 230 231 234 235 233 233 234 238 240 243 249 254 260 266 269 273 276 280 282 284 284 283 282 281 281 282 281 282 282 283 282 282 284 286 288 289 290 292 295 296 294 292 289 288 287 288 287 288 291 292 290
220 222 225 223 221 221 220 222 221 219 216 214 218 217 211 207 207 216 230 231 228 230 232 236 231 221 233 239 232 231 231 229 232 230 227 228 229 232 233 232 233 234 237 240 242 247 254 260 265 269 273 277 280 282 284 284 283 282 282 282 283 283 283 284 285 285 287 289 290 292 293 293 294 294 294 294 292 289 286 286 286 286 287 288 290 291
221 223 227 224 222 223 222 221 220 218 215 209 213 219 216 213 212 218 227 224 221 224 224 232 232 219 227 240 236 233 235 232 233 233 228 227 228 230 231 230 232 234 238 241 244 247 252 257 262 268 274 277 281 283 284 284 283 283 283 283 284 284 284 285 286 287 289 292 293 294 295 295 295 294 293 293 291 289 287 286 286 286 287 288 287 288
222 223 226 224 221 223 224 222 221 218 210 198 200 215 213 212 214 216 217 214 216 224 224 226 230 222 220 236 238 233 234 231 229 233 230 226 227 228 228 228 230 234 237 240 243 246 250 256 263 270 275 278 280 281 281 281 282 283 284 285 285 284 285 286 288 289 290 291 292 293 294 293 293 292 291 291 290 290 289 288 287 286 287 287 286 284
222 224 224 224 219 220 221 220 221 218 206 198 203 211 210 209 213 214 211 209 210 220 228 226 229 227 221 230 237 234 232 228 226 230 229 226 225 224 224 225 229 232 235 238 241 245 251 259 266 272 277 279 280 280 280 280 281 282 283 285 287 287 287 288 288 289 290 291 291 291 291 291 291 290 290 290 290 291 291 290 289 287 286 286 285 284
222 224 222 222 219 218 217 216 218 214 205 207 212 208 206 207 211 215 215 218 217 217 228 228 223 226 226 230 234 234 235 235 232 232 228 224 222 220 222 224 228 231 233 237 241 246 253 259 266 273 278 280 281 281 280 280 281 282 284 286 288 288 288 288 288 289 289 290 291 290 290 290 289 288 287 288 289 291 292 292 291 289 288 287 286 285
219 224 221 218 218 219 214 211 214 212 208 215 217 212 209 206 211 216 215 220 222 218 223 222 212 222 231 234 235 234 234 235 234 232 229 224 221 220 222 225 228 230 233 238 241 247 253 258 265 273 277 280 281 280 279 280 281 282 283 284 286 286 288 289 289 289 290 291 292 292 292 290 289 286 285 286 287 289 290 291 290 288 287 287 287 286
216 225 223 217 217 218 213 209 212 210 211 218 220 216 213 209 215 220 215 218 223 221 221 211 203 221 231 236 238 235 231 229 227 227 227 224 221 221 223 225 227 230 234 238 242 248 253 259 265 272 278 280 280 279 278 279 279 280 281 283 285 287 289 290 290 291 292 293 294 295 295 293 289 287 287 287 286 286 287 287 288 287 287 286 287 288
217 226 226 219 218 217 213 212 212 209 211 217 216 214 212 209 215 222 217 218 222 223 227 221 215 225 230 233 236 233 228 227 225 224 224 223 222 222 223 225 227 231 235 240 245 250 255 261 266 271 278 281 280 278 276 276 276 277 279 282 285 287 288 289 290 292 293 295 296 297 296 294 291 290 289 288 286 284 285 286 287 288 289 287 286 288
218 224 227 222 217 216 214 212 213 210 210 215 214 213 214 210 209 218 219 220 219 216 227 231 228 232 232 231 233 231 227 226 226 225 223 222 223 223 225 227 230 234 239 244 249 254 259 264 267 271 277 280 279 276 274 272 272 274 277 280 283 285 286 287 288 291 293 295 297 297 296 295 293 292 290 288 286 284 284 285 287 289 289 290 289 286
218 220 225 225 218 216 214 210 211 211 209 212 214 213 212 205 207 215 217 220 217 213 224 233 232 234 234 234 236 235 230 226 226 226 223 222 224 225 228 232 235 239 243 248 254 259 264 266 268 270 275 278 277 275 271 269 270 271 275 278 280 283 284 285 286 288 291 293 295 296 296 296 296 294 292 290 289 287 286 286 287 289 290 290 291 288
216 211 220 229 222 217 214 210 211 214 212 212 215 215 211 205 209 214 213 215 214 214 224 233 234 234 235 238 239 238 235 230 229 228 226 224 226 228 232 236 240 244 248 252 257 263 265 267 268 269 272 276 274 271 269 269 270 272 274 276 278 280 281 282 285 287 289 291 293 295 295 296 297 296 295 293 292 291 290 289 289 289 291 291 291 292
212 206 212 224 221 216 214 212 214 217 216 212 211 213 211 208 210 214 218 221 216 215 222 228 233 235 235 237 237 234 234 233 231 231 229 228 229 231 234 238 242 247 251 256 260 263 265 267 269 268 271 275 273 270 268 269 270 271 273 275 276 277 278 280 282 284 287 289 292 294 294 296 297 296 296 295 295 295 293 292 291 290 291 292 292 293
208 204 210 219 218 214 214 215 216 217 216 213 213 213 210 211 212 213 218 223 221 220 223 226 232 235 236 238 236 231 229 229 230 231 230 230 231 232 235 240 246 250 254 258 261 263 265 268 270 269 271 275 274 271 269 269 271 271 272 273 275 277 278 279 281 283 286 289 292 293 294 295 296 296 296 297 297 298 297 295 294 293 292 292 292 292
203 200 206 215 218 217 216 216 216 216 217 218 220 220 216 215 213 210 213 217 217 219 222 228 233 234 235 239 238 233 229 228 229 230 231 233 235 236 239 244 248 252 255 258 261 263 266 269 271 271 273 274 272 269 268 269 271 272 272 273 274 276 278 279 281 283 286 289 290 291 292 293 294 294 295 296 297 299 300 299 298 297 296 293 293 292
199 200 204 212 219 218 216 214 212 213 216 219 220 217 215 217 215 214 216 215 216 217 214 225 237 237 235 238 238 236 234 232 232 232 233 235 236 238 241 245 248 252 255 257 260 263 267 270 271 272 273 273 270 268 268 269 270 270 271 272 273 275 276 277 279 281 284 286 287 288 289 291 293 293 294 295 297 299 300 302 302 301 300 297 295 294
195 198 202 208 211 207 209 212 212 213 216 218 215 210 210 216 217 218 219 220 224 225 217 220 236 238 236 236 238 238 236 234 234 234 234 235 236 238 241 244 247 251 253 257 260 264 268 269 270 271 271 270 268 268 269 269 269 269 269 270 271 273 274 276 278 281 282 283 283 285 288 290 292 293 294 295 297 299 300 302 303 303 302 300 298 295
197 200 201 203 204 200 204 210 211 213 215 216 214 212 215 218 216 216 215 217 225 227 220 221 231 237 237 236 236 236 235 234 234 234 234 234 236 238 241 244 247 250 253 258 262 265 266 266 267 267 267 267 267 267 268 268 267 267 267 269 271 272 274 277 279 280 280 280 281 284 288 291 292 293 294 295 296 297 299 300 302 303 303 302 301 298
200 202 200 202 205 205 206 207 209 210 211 212 212 212 213 212 214 217 214 213 221 221 217 223 231 237 239 236 234 234 234 234 235 236 236 236 237 240 242 245 248 252 255 259 261 261 262 262 263 263 264 265 266 266 266 265 265 265 266 268 270 272 275 277 278 279 278 278 280 285 288 291 292 292 293 294 295 296 297 298 300 302 304 304 303 302
202 204 202 201 205 208 208 207 210 210 208 209 209 207 207 205 207 215 213 213 221 221 216 220 227 233 238 238 236 235 235 235 236 237 238 238 240 242 245 247 249 252 255 256 256 257 257 258 259 260 263 265 265 266 265 264 264 264 265 268 270 272 274 276 276 276 276 278 281 285 287 289 290 291 291 292 293 294 295 297 299 300 303 304 304 304
204 206 205 203 203 204 203 202 207 209 208 209 209 208 208 205 205 209 209 211 219 222 220 221 222 227 234 239 239 238 238 240 241 241 240 240 242 243 245 247 248 249 250 250 251 252 254 256 258 260 263 264 264 264 263 263 263 263 264 266 269 271 272 273 274 274 276 278 280 282 284 285 286 287 288 289 290 292 294 296 298 299 301 303 304 305
205 206 204 204 205 204 201 199 200 202 203 207 210 210 208 206 207 207 205 207 212 216 220 224 223 224 229 236 239 238 239 240 240 241 240 240 241 242 242 244 245 245 245 246 248 251 254 257 260 262 263 263 263 263 262 262 262 262 264 266 268 270 271 272 273 274 276 278 279 281 281 281 282 283 284 285 286 288 290 292 295 297 298 300 301 303
205 204 201 201 203 204 204 200 199 200 200 201 205 207 206 205 208 207 204 206 208 211 217 221 219 220 224 229 234 236 237 237 238 238 238 237 239 240 240 241 242 243 243 245 248 251 254 257 260 261 262 262 262 262 261 261 262 263 264 266 268 269 271 272 273 274 275 277 278 279 280 281 282 283 282 282 281 283 285 287 289 293 294 296 297 299
203 203 200 199 201 205 204 201 201 203 201 201 205 206 205 204 205 205 206 207 209 213 220 220 215 216 221 226 231 234 236 237 237 238 238 237 238 239 239 239 241 242 243 246 249 251 254 256 258 259 260 261 262 262 262 262 263 263 264 266 267 269 270 272 273 274 275 276 276 277 279 281 284 284 283 281 280 280 281 283 284 287 290 291 292 293
200 202 201 199 201 205 205 202 202 202 201 204 207 207 205 204 205 206 210 212 215 220 227 229 225 222 222 227 231 233 235 237 238 238 237 236 236 237 236 236 239 242 244 247 249 251 254 255 257 259 260 261 262 262 263 263 264 264 265 266 267 269 271 272 273 273 274 275 276 277 279 281 283 283 283 283 282 281 281 281 281 282 285 287 287 288
200 203 202 200 202 206 205 202 201 200 202 204 204 205 205 205 205 209 214 218 221 225 230 235 235 232 230 232 234 236 238 239 239 239 238 236 236 236 236 236 239 241 244 247 250 253 255 257 259 261 262 263 264 264 264 265 265 265 266 267 269 271 273 273 273 273 274 275 277 278 279 280 281 282 283 284 284 283 281 280 280 280 280 282 284 285
201 202 203 203 204 204 203 200 197 198 202 203 201 200 202 204 206 209 213 218 224 228 232 236 237 236 236 237 238 238 239 240 240 240 239 238 238 239 240 241 242 244 246 248 251 253 257 259 261 263 264 265 266 267 267 268 268 268 268 270 271 273 274 274 274 274 275 276 277 278 278 278 279 280 282 283 284 284 282 281 279 279 278 277 279 281
202 202 203 203 203 202 202 201 200 200 201 202 201 201 203 206 209 212 216 221 226 230 233 234 235 236 236 237 237 237 237 239 241 241 241 241 241 242 242 243 244 246 248 250 252 254 257 259 261 262 264 266 268 269 270 270 270 270 271 271 273 274 275 275 276 276 276 277 278 279 279 279 279 279 280 280 281 282 281 280 279 279 278 277 277 278
201 205 204 201 200 202 203 204 205 204 203 203 204 206 207 208 210 214 218 222 226 229 231 233 234 236 236 235 234 234 235 238 241 242 241 241 241 242 243 243 245 247 249 252 254 255 257 258 259 262 264 267 269 270 270 270 270 271 272 273 274 274 275 275 276 276 277 278 279 279 280 279 279 279 279 278 278 278 278 277 277 278 278 278 278 278
196 202 204 202 202 205 206 208 209 207 206 207 208 210 211 212 215 217 219 223 226 228 232 236 239 241 241 238 236 236 238 242 243 240 240 241 242 243 244 244 246 249 252 254 255 256 256 257 258 261 264 267 268 269 270 270 271 273 274 275 276 276 277 277 277 278 278 278 278 278 278 279 279 278 278 278 277 277 277 276 276 275 276 277 278 278
193 198 202 204 207 207 206 207 208 208 209 210 212 215 216 217 220 222 221 224 227 227 232 239 244 246 246 243 241 240 242 248 247 241 238 241 243 244 246 249 252 255 257 258 258 259 259 259 259 262 264 267 268 270 271 273 274 275 276 276 277 278 278 279 279 280 279 279 279 278 279 279 279 279 279 278 278 277 277 277 276 274 273 274 276 277
195 198 202 205 209 209 207 207 209 212 213 213 214 217 217 217 220 221 221 224 228 232 238 243 246 247 246 245 244 243 245 251 253 248 244 244 246 250 253 256 258 259 260 261 262 262 263 263 263 264 266 268 270 272 274 276 277 277 277 277 278 278 279 279 280 280 281 281 280 280 280 280 280 280 280 279 279 279 279 278 278 277 275 274 275 276
198 201 204 206 209 211 211 212 214 217 217 217 218 220 220 221 225 228 230 232 234 238 243 244 245 245 245 245 245 246 249 253 255 254 253 252 253 255 257 258 259 260 261 263 264 265 266 266 266 266 268 270 273 274 276 277 278 279 279 279 279 279 280 280 280 280 280 280 280 280 280 280 280 280 280 280 280 280 280 280 280 280 279 278 276 276
201 204 207 209 212 215 216 217 220 222 221 221 224 227 228 228 231 234 236 237 238 240 242 243 243 244 245 246 248 250 252 253 254 255 255 255 255 256 257 259 261 262 263 264 265 267 268 268 269 270 271 273 274 276 277 278 279 280 281 281 282 282 282 282 282 282 281 281 281 281 281 281 281 281 281 282 281 281 281 281 281 281 281 280 278 277
201 204 207 210 213 217 220 222 224 225 223 222 224 227 229 230 231 234 237 238 239 241 242 244 245 245 246 247 248 249 250 250 252 253 254 254 255 257 259 262 263 263 263 264 266 268 269 270 272 273 274 276 277 278 279 280 281 282 283 284 285 285 285 285 284 284 284 283 283 282 282 282 282 282 283 283 283 282 282 282 282 281 281 281 280 279
198 201 207 210 210 212 219 222 224 224 223 223 224 227 229 231 234 237 240 240 241 242 243 243 244 245 244 244 245 246 247 248 249 251 252 254 255 257 259 261 261 262 263 265 267 268 270 272 273 275 277 278 280 281 283 284 285 286 286 287 288 288 288 288 288 287 286 286 285 284 284 283 283 283 283 282 282 282 282 282 282 282 281 281 281 280
201 203 209 212 211 212 217 221 222 221 221 222 224 227 229 232 235 237 238 239 239 239 240 241 241 241 242 242 244 246 246 247 247 249 251 253 254 256 257 258 260 262 264 266 268 270 272 274 276 278 280 282 284 285 287 288 289 290 291 291 292 292 291 291 290 290 289 288 287 286 285 284 284 283 283 283 282 282 281 281 281 280 280 281 280 280
209 211 213 214 215 216 219 221 221 220 222 224 227 228 229 232 233 234 235 236 237 237 238 239 240 240 241 242 243 244 245 246 247 248 249 251 252 254 256 258 261 264 267 269 271 273 276 278 280 283 285 287 289 290 292 293 293 293 293 293 293 293 293 292 291 291 289 288 287 286 285 284 283 282 282 281 281 281 280 280 279 279 279 279 279 279
218 218 218 218 219 220 223 225 226 226 227 229 231 231 231 231 232 233 234 235 235 236 236 237 238 238 239 240 241 243 244 245 245 246 247 249 252 255 258 261 264 266 268 270 273 275 278 282 285 288 290 291 293 293 294 294 295 295 297 297 298 298 298 298 297 295 294 292 290 288 286 284 283 281 280 279 278 278 278 278 277 277 277 277 277 277
221 221 222 223 223 225 226 228 230 232 232 232 232 232 232 231 231 231 232 233 233 234 235 235 236 237 238 239 240 241 242 243 244 246 249 252 255 258 261 263 265 267 269 272 275 279 283 285 288 289 290 292 293 295 297 300 303 306 309 311 312 312 312 311 310 308 306 304 300 297 294 291 288 285 282 280 279 278 277 276 276 275 275 274 274 274
223 224 225 226 226 228 229 230 231 232 232 231 231 231 230 230 230 230 230 231 231 232 233 233 234 235 236 237 239 241 243 245 248 250 253 254 256 257 259 261 264 267 271 274 278 281 283 285 286 289 292 297 302 308 314 319 322 324 326 327 328 328 327 327 326 324 322 319 316 312 308 303 299 295 291 287 284 282 280 278 277 276 275 274 272 272
221 224 226 227 228 228 229 230 230 230 231 230 230 230 230 230 230 230 230 230 231 231 232 232 233 235 237 239 242 244 246 248 249 250 250 251 252 254 256 259 263 267 271 274 276 278 280 284 289 297 307 315 322 326 329 330 332 333 334 336 337 339 340 340 340 340 338 336 333 329 325 319 314 309 304 300 295 291 288 285 282 280 278 275 273 271
219 220 223 225 226 227 227 228 228 228 227 227 227 228 228 229 229 229 229 230 231 231 232 233 235 236 239 240 242 243 243 243 244 244 245 246 247 249 252 255 259 263 265 267 270 274 282 294 307 318 324 327 328 329 330 331 332 335 338 341 344 347 349 350 351 352 352 352 349 346 341 335 328 321 316 312 308 304 301 297 292 288 285 281 278 274
220 221 222 222 223 224 225 226 227 226 226 226 225 225 226 226 227 227 228 229 229 230 232 233 234 235 237 237 237 237 236 235 235 236 237 238 239 242 245 249 250 251 253 258 266 281 299 315 323 326 327 328 329 329 329 331 333 337 341 344 348 351 353 354 356 357 358 358 358 356 352 347 340 332 325 320 316 313 310 307 304 299 294 290 285 280
Height
5746 5747 5750 5754 5757 5760 5763 5766 5770 5773 5775 5776 5779 5783 5784 5787 5790 5789 5787 5789 5793 5796 5797 5801 5801 5800 5801 5803 5804 5805 5806 5807 5809 5810 5812 5814 5815 5815 5815 5815 5816 5818 5819 5820 5822 5824 5825 5826 5826 5827 5827 5828 5828 5828 5827 5826 5826 5825 5825 5825 5825 5825 5825 5824 5824 5823 5823 5823 5823 5822 5822 5821 5820 5819 5817 5816 5815 5815 5814 5813 5812 5812 5811 5810 5810 5811
5741 5743 5747 5753 5755 5758 5760 5763 5767 5769 5770 5772 5776 5780 5782 5785 5788 5787 5784 5786 5791 5795 5797 5799 5798 5796 5799 5800 5800 5802 5802 5803 5805 5808 5810 5811 5812 5813 5813 5813 5814 5817 5818 5819 5821 5822 5822 5823 5824 5825 5826 5826 5826 5826 5825 5824 5824 5824 5823 5823 5823 5823 5823 5822 5822 5821 5821 5821 5821 5820 5819 5818 5817 5816 5814 5813 5813 5812 5811 5810 5810 5809 5809 5808 5807 5807
5737 5740 5745 5749 5751 5754 5756 5760 5764 5765 5767 5771 5774 5779 5780 5782 5785 5783 5781 5784 5789 5793 5796 5795 5793 5793 5796 5796 5797 5798 5799 5800 5802 5805 5806 5808 5809 5811 5812 5813 5814 5815 5817 5818 5819 5819 5820 5821 5822 5823 5824 5824 5824 5823 5823 5822 5822 5822 5822 5821 5821 5821 5821 5820 5820 5820 5819 5819 5818 5818 5817 5816 5816 5814 5812 5811 5810 5809 5807 5807 5807 5807 5806 5806 5804 5804
5734 5739 5743 5746 5748 5750 5753 5757 5760 5761 5765 5769 5773 5777 5777 5780 5784 5780 5777 5781 5786 5789 5791 5790 5790 5792 5793 5793 5794 5795 5796 5798 5800 5802 5804 5806 5807 5808 5810 5811 5813 5813 5815 5816 5817 5817 5818 5819 5819 5820 5821 5821 5821 5821 5820 5820 5820 5820 5820 5820 5819 5819 5818 5818 5818 5817 5817 5816 5816 5816 5815 5814 5813 5813 5811 5809 5807 5806 5805 5804 5804 5805 5804 5804 5802 5801
5733 5737 5740 5742 5745 5747 5750 5754 5756 5758 5763 5766 5769 5773 5775 5779 5782 5776 5774 5779 5783 5785 5786 5787 5788 5789 5790 5791 5791 5791 5792 5795 5797 5800 5802 5803 5805 5806 5807 5809 5810 5811 5812 5814 5815 5815 5816 5816 5817 5818 5819 5818 5818 5818 5818 5818 5818 5818 5818 5818 5818 5817 5816 5816 5816 5815 5815 5814 5813 5813 5812 5811 5811 5810 5809 5808 5806 5805 5803 5802 5802 5802 5802 5801 5799 5798
5730 5733 5735 5738 5741 5743 5747 5750 5753 5757 5760 5763 5765 5769 5772 5777 5778 5774 5772 5776 5779 5780 5782 5785 5786 5787 5788 5788 5788 5788 5790 5792 5795 5798 5799 5801 5802 5803 5805 5807 5808 5809 5810 5812 5813 5813 5814 5814 5815 5816 5816 5816 5815 5815 5815 5815 5815 5816 5816 5816 5816 5815 5814 5814 5814 5813 5812 5812 5811 5811 5810 5809 5808 5807 5807 5806 5805 5804 5802 5801 5799 5799 5798 5798 5796 5796
5726 5727 5730 5733 5736 5740 5744 5747 5751 5754 5757 5760 5763 5766 5769 5773 5774 5772 5770 5771 5776 5779 5779 5782 5785 5786 5785 5785 5786 5786 5787 5789 5792 5795 5797 5798 5799 5801 5803 5804 5806 5807 5808 5810 5811 5811 5812 5812 5813 5813 5814 5814 5813 5813 5813 5813 5813 5813 5814 5814 5814 5813 5812 5812 5812 5811 5810 5810 5809 5809 5808 5807 5806 5805 5804 5803 5803 5802 5801 5799 5798 5797 5796 5796 5794 5793
5721 5723 5725 5728 5732 5737 5741 5744 5747 5751 5755 5758 5760 5763 5766 5768 5770 5769 5766 5769 5775 5777 5777 5779 5783 5784 5782 5782 5783 5783 5784 5786 5788 5791 5794 5795 5797 5798 5800 5802 5803 5805 5806 5807 5808 5809 5809 5810 5810 5811 5811 5811 5811 5811 5810 5810 5810 5811 5811 5811 5811 5810 5810 5809 5809 5809 5808 5807 5807 5806 5806 5805 5804 5802 5801 5801 5800 5799 5798 5797 5795 5794 5794 5794 5792 5791
5718 5721 5721 5725 5730 5734 5737 5740 5744 5748 5752 5755 5756 5759 5761 5763 5766 5766 5765 5770 5773 5775 5775 5776 5779 5782 5779 5777 5778 5780 5782 5783 5785 5787 5790 5792 5794 5796 5797 5799 5801 5802 5804 5805 5806 5807 5807 5808 5808 5809 5809 5809 5808 5808 5808 5808 5808 5808 5809 5809 5809 5808 5807 5807 5807 5806 5805 5805 5804 5803 5803 5802 5801 5800 5799 5798 5798 5797 5796 5794 5792 5791 5791 5791 5791 5789
5716 5718 5717 5722 5729 5731 5735 5738 5741 5745 5749 5752 5754 5755 5757 5760 5762 5763 5765 5769 5771 5771 5772 5772 5774 5778 5777 5774 5775 5778 5778 5780 5782 5784 5786 5789 5791 5793 5795 5797 5798 5800 5801 5803 5804 5805 5806 5806 5806 5807 5807 5806 5806 5806 5806 5806 5805 5806 5806 5806 5806 5806 5805 5804 5804 5803 5803 5802 5801 5800 5800 5799 5799 5798 5797 5796 5795 5794 5793 5791 5790 5789 5788 5788 5788 5786
5711 5712 5713 5720 5726 5728 5732 5735 5737 5742 5746 5750 5752 5751 5753 5757 5758 5760 5763 5767 5769 5767 5767 5769 5771 5775 5775 5772 5774 5775 5774 5776 5779 5780 5783 5786 5788 5790 5793 5794 5796 5798 5799 5800 5802 5803 5803 5804 5804 5805 5804 5804 5804 5804 5804 5803 5803 5803 5804 5804 5804 5803 5803 5802 5801 5801 5800 5799 5798 5798 5797 5796 5796 5795 5794 5793 5792 5791 5790 5789 5787 5786 5786 5785 5784 5783
5704 5706 5710 5716 5721 5724 5727 5731 5734 5739 5743 5745 5746 5747 5750 5754 5755 5757 5759 5761 5763 5764 5765 5766 5768 5771 5772 5770 5770 5770 5769 5773 5777 5777 5780 5783 5785 5788 5790 5792 5794 5795 5797 5798 5799 5801 5801 5801 5802 5802 5802 5801 5801 5801 5801 5801 5801 5801 5801 5801 5801 5800 5800 5799 5798 5798 5797 5796 5796 5795 5794 5794 5793 5792 5791 5790 5789 5788 5787 5786 5785 5783 5783 5781 5780 5779
5699 5702 5707 5712 5717 5719 5723 5727 5730 5734 5738 5738 5740 5744 5747 5750 5751 5753 5755 5755 5758 5762 5764 5764 5767 5769 5767 5765 5765 5765 5768 5773 5776 5776 5778 5780 5783 5786 5788 5790 5792 5793 5795 5796 5797 5798 5799 5799 5800 5799 5799 5799 5799 5799 5799 5798 5799 5799 5799 5798 5798 5797 5797 5796 5796 5795 5794 5793 5793 5792 5792 5791 5790 5789 5788 5787 5786 5785 5784 5783 5781 5780 5779 5778 5776 5775
5697 5699 5703 5708 5712 5714 5719 5723 5724 5728 5732 5732 5735 5740 5743 5746 5747 5748 5750 5752 5755 5759 5761 5763 5767 5766 5762 5761 5762 5765 5769 5772 5774 5775 5776 5778 5781 5783 5786 5787 5789 5791 5793 5794 5795 5796 5797 5797 5797 5797 5797 5796 5796 5796 5796 5796 5796 5796 5796 5795 5795 5795 5794 5793 5793 5792 5792 5791 5790 5789 5789 5788 5787 5786 5785 5784 5783 5782 5781 5780 5778 5776 5775 5774 5773 5772
5695 5694 5699 5705 5707 5710 5716 5719 5721 5726 5728 5729 5734 5739 5740 5743 5744 5745 5748 5751 5753 5756 5758 5761 5764 5761 5758 5757 5759 5763 5767 5769 5771 5773 5774 5776 5779 5781 5783 5785 5786 5788 5790 5792 5793 5794 5795 5795 5795 5795 5795 5794 5794 5793 5793 5793 5793 5793 5793 5792 5792 5791 5791 5790 5790 5789 5788 5788 5787 5786 5786 5785 5784 5783 5782 5781 5780 5779 5778 5776 5774 5772 5771 5771 5770 5769
5692 5693 5697 5702 5704 5708 5713 5715 5719 5723 5724 5727 5732 5735 5737 5741 5743 5744 5747 5750 5752 5755 5755 5756 5758 5756 5754 5754 5756 5759 5763 5766 5768 5769 5771 5774 5776 5778 5781 5782 5784 5786 5788 5789 5791 5792 5792 5792 5793 5793 5792 5792 5791 5791 5791 5791 5790 5790 5790 5789 5789 5788 5788 5787 5786 5786 5785 5784 5783 5782 5782 5782 5781 5780 5779 5778 5777 5775 5774 5772 5770 5768 5767 5767 5767 5766
5689 5693 5695 5697 5700 5704 5708 5712 5716 5718 5720 5724 5728 5730 5734 5739 5742 5743 5745 5747 5750 5752 5752 5751 5752 5751 5752 5752 5752 5755 5760 5763 5765 5766 5768 5771 5773 5776 5778 5781 5783 5784 5785 5787 5788 5789 5789 5790 5790 5790 5790 5789 5789 5788 5788 5788 5788 5788 5787 5787 5786 5785 5785 5784 5783 5783 5782 5781 5780 5779 5779 5778 5777 5776 5775 5774 5773 5772 5770 5769 5767 5765 5764 5763 5763 5763
5688 5693 5693 5693 5698 5702 5705 5711 5714 5715 5718 5721 5724 5728 5732 5737 5740 5741 5743 5744 5746 5749 5748 5747 5747 5748 5749 5749 5750 5754 5757 5760 5762 5763 5766 5768 5771 5774 5776 5778 5780 5781 5783 5784 5785 5786 5786 5787 5787 5787 5787 5787 5786 5786 5786 5785 5785 5785 5785 5784 5783 5782 5782 5781 5780 5780 5779 5778 5777 5776 5775 5775 5774 5773 5772 5771 5770 5768 5767 5766 5764 5762 5760 5759 5758 5758
5686 5692 5692 5692 5696 5700 5704 5708 5710 5711 5716 5719 5723 5728 5730 5734 5736 5737 5738 5739 5741 5743 5744 5745 5745 5745 5747 5747 5748 5753 5756 5758 5760 5762 5764 5767 5769 5772 5774 5776 5778 5779 5780 5782 5782 5783 5784 5784 5784 5784 5784 5784 5784 5783 5783 5783 5783 5782 5782 5781 5780 5779 5779 5778 5777 5776 5776 5775 5774 5773 5772 5772 5771 5770 5769 5768 5767 5766 5764 5763 5761 5759 5757 5756 5755 5754
5684 5688 5689 5689 5692 5697 5700 5703 5705 5708 5713 5718 5721 5724 5727 5730 5732 5733 5735 5736 5738 5740 5742 5744 5743 5743 5744 5744 5746 5750 5753 5755 5758 5759 5762 5765 5767 5770 5772 5773 5775 5776 5778 5779 5780 5780 5780 5781 5781 5781 5781 5781 5780 5780 5780 5780 5779 5779 5779 5778 5777 5777 5776 5775 5774 5773 5773 5772 5771 5771 5770 5769 5768 5767 5766 5765 5764 5763 5761 5760 5758 5757 5755 5753 5751 5751
5681 5685 5687 5687 5690 5692 5695 5698 5702 5707 5711 5713 5714 5718 5722 5725 5728 5731 5733 5734 5736 5738 5740 5741 5741 5740 5740 5740 5743 5747 5748 5751 5754 5757 5760 5762 5765 5767 5769 5771 5773 5774 5775 5776 5776 5777 5777 5777 5778 5778 5777 5777 5777 5777 5777 5776 5776 5776 5775 5775 5774 5774 5773 5772 5771 5770 5770 5769 5768 5767 5766 5766 5765 5764 5763 5762 5761 5760 5758 5757 5755 5754 5752 5750 5748 5747
5679 5683 5684 5685 5687 5689 5692 5697 5703 5707 5709 5710 5712 5717 5720 5722 5725 5728 5729 5731 5734 5735 5738 5739 5737 5737 5738 5739 5741 5743 5745 5748 5752 5755 5757 5760 5762 5765 5766 5768 5770 5771 5772 5773 5773 5773 5773 5773 5774 5773 5773 5773 5774 5773 5773 5772 5772 5772 5772 5771 5771 5770 5770 5769 5768 5768 5767 5766 5765 5764 5764 5763 5762 5761 5760 5759 5758 5757 5755 5754 5752 5751 5749 5748 5745 5744
5676 5680 5682 5684 5686 5689 5693 5697 5701 5704 5706 5708 5711 5716 5718 5719 5722 5724 5726 5729 5731 5732 5736 5737 5735 5733 5735 5737 5738 5741 5744 5747 5750 5752 5755 5757 5760 5762 5763 5765 5766 5768 5769 5769 5770 5770 5770 5770 5770 5769 5769 5770 5770 5769 5769 5769 5768 5768 5768 5768 5768 5767 5767 5766 5766 5765 5765 5764 5763 5762 5761 5760 5759 5758 5757 5756 5755 5753 5752 5751 5750 5748 5747 5745 5743 5741
5673 5676 5680 5683 5686 5689 5692 5695 5697 5700 5702 5705 5708 5712 5715 5716 5719 5722 5725 5728 5729 5730 5734 5734 5731 5729 5732 5734 5736 5739 5743 5745 5747 5749 5752 5754 5757 5758 5760 5762 5763 5764 5765 5766 5766 5766 5766 5766 5766 5766 5766 5766 5766 5765 5765 5765 5765 5765 5765 5765 5764 5764 5764 5763 5762 5762 5762 5761 5760 5759 5758 5757 5756 5755 5754 5753 5751 5750 5749 5748 5747 5746 5744 5743 5741 5739
5670 5674 5678 5681 5683 5685 5687 5690 5692 5695 5699 5702 5704 5708 5711 5713 5716 5719 5723 5726 5726 5727 5730 5730 5727 5727 5730 5732 5734 5737 5739 5742 5744 5746 5749 5751 5753 5755 5757 5758 5760 5761 5762 5762 5763 5762 5762 5762 5762 5762 5762 5762 5762 5761 5761 5761 5761 5762 5762 5761 5761 5761 5760 5760 5759 5759 5758 5758 5757 5756 5755 5754 5753 5752 5750 5749 5748 5747 5746 5744 5743 5742 5742 5740 5739 5736
5669 5672 5675 5678 5680 5681 5683 5685 5688 5691 5695 5698 5701 5704 5708 5711 5714 5717 5720 5722 5721 5724 5727 5726 5725 5726 5728 5730 5732 5734 5737 5739 5741 5744 5746 5748 5750 5752 5754 5755 5757 5758 5758 5758 5758 5758 5758 5758 5758 5758 5758 5758 5758 5758 5758 5758 5758 5758 5758 5758 5758 5757 5757 5756 5756 5756 5755 5755 5754 5753 5752 5751 5750 5748 5747 5746 5745 5743 5742 5741 5740 5739 5738 5737 5736 5734
5667 5669 5671 5674 5677 5680 5682 5686 5689 5690 5693 5696 5698 5701 5704 5708 5713 5715 5717 5719 5719 5721 5723 5722 5722 5723 5725 5727 5730 5732 5734 5737 5739 5741 5744 5745 5747 5749 5750 5751 5753 5754 5754 5754 5754 5754 5755 5755 5755 5755 5755 5755 5754 5755 5755 5755 5755 5755 5755 5755 5755 5754 5754 5753 5753 5752 5752 5752 5751 5750 5749 5748 5746 5745 5744 5742 5741 5740 5739 5738 5737 5735 5735 5734 5733 5731
5664 5666 5669 5672 5675 5677 5680 5684 5686 5689 5692 5695 5697 5699 5702 5705 5709 5711 5713 5715 5716 5717 5717 5717 5719 5721 5722 5725 5727 5729 5732 5734 5736 5738 5740 5742 5743 5745 5746 5747 5749 5749 5750 5750 5750 5751 5751 5751 5751 5751 5751 5751 5751 5751 5751 5752 5752 5752 5752 5752 5751 5751 5750 5750 5750 5749 5749 5748 5747 5747 5746 5744 5743 5742 5741 5740 5738 5737 5736 5734 5733 5732 5731 5731 5730 5728
5662 5665 5668 5671 5673 5676 5678 5681 5684 5687 5690 5693 5695 5697 5700 5702 5704 5706 5708 5710 5711 5712 5713 5714 5717 5719 5721 5723 5725 5727 5729 5731 5733 5735 5736 5738 5739 5741 5742 5743 5744 5745 5746 5746 5747 5747 5747 5747 5747 5748 5748 5748 5748 5748 5748 5748 5748 5748 5748 5748 5748 5747 5747 5747 5746 5746 5745 5744 5744 5743 5742 5741 5740 5739 5738 5737 5735 5734 5732 5731 5730 5728 5727 5727 5726 5725
5660 5662 5666 5669 5671 5674 5677 5679 5682 5684 5686 5689 5692 5694 5697 5699 5701 5702 5704 5706 5708 5709 5711 5712 5714 5716 5718 5721 5723 5725 5727 5728 5730 5732 5733 5735 5736 5737 5738 5739 5740 5741 5742 5743 5743 5743 5743 5744 5744 5744 5744 5744 5744 5744 5745 5745 5745 5745 5745 5744 5744 5743 5743 5743 5742 5742 5741 5741 5740 5739 5738 5737 5736 5735 5734 5733 5732 5731 5729 5728 5727 5725 5724 5723 5722 5722
5657 5660 5664 5667 5669 5672 5675 5678 5679 5681 5684 5687 5689 5691 5693 5695 5697 5698 5701 5703 5705 5707 5709 5711 5713 5715 5717 5719 5721 5723 5725 5726 5728 5729 5730 5732 5733 5734 5735 5736 5737 5738 5739 5739 5740 5740 5740 5740 5741 5741 5741 5741 5741 5741 5741 5741 5741 5741 5741 5740 5740 5740 5739 5739 5738 5738 5737 5737 5736 5735 5734 5733 5732 5731 5730 5729 5728 5727 5726 5725 5723 5722 5721 5719 5718 5718
5656 5659 5662 5666 5668 5670 5673 5675 5677 5679 5683 5685 5687 5689 5691 5693 5695 5697 5699 5701 5704 5706 5708 5709 5712 5714 5716 5718 5719 5721 5723 5724 5725 5727 5728 5729 5731 5732 5733 5734 5734 5735 5736 5736 5737 5737 5737 5737 5737 5737 5737 5737 5737 5737 5737 5737 5737 5737 5737 5736 5736 5735 5735 5735 5734 5734 5733 5732 5731 5731 5730 5729 5728 5727 5726 5725 5724 5723 5722 5721 5720 5719 5717 5716 5714 5714
5655 5658 5661 5664 5666 5667 5670 5673 5676 5679 5681 5683 5685 5688 5690 5692 5694 5696 5698 5700 5702 5704 5706 5709 5711 5713 5715 5716 5718 5719 5720 5722 5723 5724 5725 5727 5728 5729 5730 5731 5732 5732 5733 5733 5733 5734 5734 5734 5734 5734 5734 5734 5734 5734 5733 5733 5733 5733 5732 5732 5731 5731 5730 5730 5729 5729 5728 5727 5727 5726 5725 5724 5724 5723 5722 5721 5720 5719 5718 5717 5716 5715 5714 5712 5711 5710
5654 5657 5660 5662 5664 5666 5669 5672 5675 5676 5677 5679 5682 5686 5688 5690 5692 5695 5697 5699 5701 5703 5706 5708 5710 5711 5712 5714 5715 5717 5718 5719 5720 5721 5723 5724 5725 5726 5727 5728 5729 5730 5730 5730 5730 5730 5731 5730 5730 5730 5731 5731 5730 5730 5730 5729 5729 5729 5728 5728 5727 5726 5726 5725 5724 5724 5723 5722 5722 5721 5720 5720 5719 5718 5718 5717 5716 5715 5714 5713 5712 5711 5710 5709 5707 5706
5654 5656 5657 5660 5663 5666 5669 5671 5672 5673 5675 5678 5681 5683 5686 5688 5691 5694 5696 5698 5700 5702 5704 5706 5707 5709 5710 5711 5713 5714 5715 5716 5717 5719 5720 5721 5722 5723 5725 5725 5726 5727 5727 5727 5727 5727 5727 5727 5727 5727 5727 5727 5727 5726 5726 5726 5725 5725 5724 5724 5723 5722 5722 5721 5720 5719 5718 5717 5717 5716 5715 5715 5714 5714 5713 5712 5711 5710 5709 5708 5707 5706 5706 5705 5704 5703
5652 5654 5656 5658 5661 5664 5667 5669 5670 5672 5674 5677 5680 5682 5685 5688 5690 5692 5694 5696 5698 5700 5702 5704 5705 5707 5708 5709 5710 5711 5713 5714 5715 5716 5717 5718 5719 5720 5721 5722 5723 5723 5724 5724 5724 5724 5724 5724 5724 5724 5723 5723 5723 5722 5722 5721 5721 5721 5720 5720 5719 5718 5717 5716 5715 5714 5713 5712 5711 5711 5710 5709 5709 5708 5708 5707 5706 5706 5705 5704 5703 5702 5701 5700 5699 5698
5651 5653 5655 5657 5660 5662 5664 5666 5668 5671 5673 5676 5679 5681 5684 5686 5688 5690 5692 5694 5696 5698 5700 5701 5703 5704 5706 5707 5708 5709 5710 5711 5712 5713 5714 5715 5716 5717 5719 5719 5720 5720 5720 5720 5720 5721 5721 5721 5720 5720 5720 5719 5719 5718 5718 5717 5717 5717 5716 5715 5714 5714 5713 5712 5711 5709 5708 5707 5706 5705 5704 5704 5703 5702 5702 5701 5701 5700 5699 5699 5698 5698 5697 5695 5695 5694
5649 5651 5654 5656 5659 5661 5663 5665 5668 5670 5671 5674 5677 5680 5682 5684 5686 5688 5690 5692 5693 5695 5697 5699 5700 5702 5703 5704 5705 5706 5707 5708 5709 5710 5711 5712 5713 5714 5715 5716 5716 5717 5717 5717 5717 5717 5717 5717 5717 5717 5716 5716 5715 5715 5714 5714 5713 5712 5712 5711 5710 5709 5708 5707 5706 5704 5703 5702 5701 5700 5699 5698 5697 5696 5696 5695 5694 5694 5694 5693 5692 5692 5692 5691 5690 5689
5648 5651 5653 5655 5657 5659 5662 5664 5667 5668 5670 5673 5675 5678 5680 5682 5684 5686 5687 5689 5690 5692 5694 5696 5698 5699 5700 5701 5702 5703 5704 5705 5706 5707 5708 5709 5710 5711 5712 5712 5713 5713 5713 5713 5713 5713 5713 5713 5713 5713 5712 5711 5711 5711 5710 5709 5709 5708 5707 5706 5705 5704 5703 5702 5700 5699 5698 5697 5695 5694 5693 5692 5691 5690 5689 5689 5688 5688 5687 5687 5686 5686 5686 5685 5685 5684
5647 5650 5652 5654 5656 5658 5660 5662 5664 5665 5669 5672 5674 5676 5678 5680 5682 5683 5684 5686 5688 5690 5692 5694 5695 5696 5697 5698 5699 5701 5702 5703 5703 5704 5705 5706 5707 5708 5708 5708 5708 5709 5709 5709 5709 5709 5709 5709 5709 5708 5708 5707 5707 5706 5706 5705 5704 5703 5702 5701 5700 5699 5698 5696 5695 5694 5693 5691 5690 5689 5687 5686 5685 5684 5683 5682 5681 5681 5680 5680 5680 5679 5679 5679 5678 5678
5647 5649 5651 5654 5656 5657 5659 5660 5661 5663 5667 5670 5672 5673 5676 5678 5679 5679 5680 5683 5686 5688 5689 5690 5692 5693 5694 5695 5697 5698 5699 5699 5700 5701 5702 5703 5703 5704 5704 5704 5704 5705 5705 5705 5705 5705 5705 5705 5704 5704 5704 5703 5703 5702 5702 5701 5700 5699 5698 5696 5695 5694 5692 5691 5690 5689 5687 5686 5685 5683 5682 5680 5679 5678 5677 5676 5674 5674 5673 5672 5672 5672 5671 5671 5671 5671
5647 5649 5651 5653 5654 5656 5657 5658 5660 5662 5665 5668 5669 5671 5673 5674 5675 5676 5678 5682 5684 5685 5686 5688 5689 5690 5692 5693 5694 5694 5695 5696 5696 5697 5698 5699 5699 5700 5700 5700 5700 5701 5701 5701 5701 5701 5701 5701 5701 5700 5700 5699 5699 5698 5698 5697 5696 5694 5693 5692 5690 5689 5687 5686 5684 5683 5682 5680 5679 5677 5676 5674 5673 5671 5670 5669 5667 5666 5665 5664 5664 5664 5663 5663 5663 5664
5646 5648 5649 5650 5652 5654 5655 5656 5658 5661 5664 5666 5667 5669 5670 5671 5673 5675 5677 5680 5681 5682 5683 5685 5686 5687 5688 5689 5690 5691 5692 5693 5693 5694 5695 5695 5696 5696 5697 5697 5697 5697 5698 5698 5698 5698 5697 5697 5697 5697 5697 5696 5695 5695 5694 5693 5691 5690 5689 5688 5686 5684 5682 5681 5679 5677 5676 5675 5673 5671 5669 5668 5666 5665 5663 5662 5661 5659 5658 5657 5656 5655 5655 5655 5655 5655
5644 5646 5647 5649 5651 5653 5653 5654 5657 5660 5661 5663 5664 5666 5668 5670 5672 5673 5675 5676 5677 5679 5680 5681 5683 5684 5685 5686 5687 5688 5689 5689 5690 5691 5692 5692 5693 5693 5693 5693 5694 5694 5694 5694 5694 5694 5694 5694 5694 5694 5693 5693 5692 5691 5690 5689 5688 5686 5685 5683 5681 5679 5678 5676 5673 5672 5670 5668 5666 5664 5663 5661 5660 5658 5656 5655 5653 5652 5651 5650 5649 5648 5647 5647 5646 5647
5643 5645 5646 5648 5650 5651 5652 5654 5656 5658 5659 5660 5662 5665 5667 5668 5669 5670 5671 5673 5674 5675 5677 5678 5679 5681 5682 5683 5684 5685 5686 5686 5687 5688 5689 5689 5690 5690 5690 5691 5691 5691 5691 5691 5691 5691 5691 5691 5691 5690 5690 5689 5689 5687 5686 5685 5684 5682 5681 5679 5677 5675 5673 5671 5668 5666 5664 5662 5660 5658 5656 5654 5652 5651 5649 5647 5646 5644 5643 5642 5641 5641 5640 5639 5638 5638
5642 5643 5645 5646 5648 5649 5650 5652 5653 5655 5657 5659 5661 5662 5664 5665 5666 5668 5669 5670 5671 5673 5674 5675 5676 5678 5679 5680 5681 5682 5683 5684 5684 5685 5686 5686 5687 5687 5688 5688 5689 5689 5689 5689 5689 5689 5688 5688 5688 5687 5687 5686 5685 5684 5683 5682 5680 5678 5677 5675 5673 5671 5668 5666 5664 5661 5658 5656 5654 5651 5649 5647 5644 5643 5641 5639 5638 5636 5635 5634 5633 5633 5632 5632 5631 5630
5640 5641 5642 5644 5645 5647 5648 5649 5651 5653 5655 5656 5658 5659 5661 5662 5663 5665 5666 5667 5669 5670 5671 5672 5674 5675 5676 5677 5678 5679 5680 5681 5682 5683 5683 5684 5684 5685 5685 5686 5686 5686 5686 5686 5686 5686 5686 5685 5685 5684 5684 5683 5682 5681 5680 5679 5677 5675 5673 5672 5669 5667 5664 5662 5660 5657 5654 5651 5648 5645 5642 5639 5637 5635 5632 5631 5630 5628 5626 5625 5625 5624 5624 5623 5623 5622
5638 5639 5640 5642 5643 5645 5646 5647 5649 5650 5652 5654 5655 5656 5658 5659 5661 5662 5664 5665 5666 5667 5669 5670 5671 5672 5674 5675 5676 5677 5678 5679 5680 5680 5681 5682 5682 5683 5683 5684 5684 5684 5684 5683 5683 5683 5683 5683 5682 5682 5681 5680 5679 5678 5677 5675 5674 5672 5671 5669 5667 5664 5661 5659 5656 5653 5650 5647 5644 5640 5637 5633 5630 5628 5625 5623 5621 5620 5618 5617 5616 5616 5615 5615 5614 5614
5635 5637 5638 5639 5641 5642 5643 5645 5646 5648 5649 5651 5653 5654 5655 5657 5658 5660 5661 5662 5664 5665 5667 5668 5669 5670 5672 5672 5673 5674 5675 5676 5677 5678 5679 5680 5680 5681 5681 5681 5681 5681 5681 5681 5681 5681 5681 5680 5680 5679 5679 5678 5677 5675 5674 5673 5671 5670 5668 5666 5664 5662 5659 5656 5654 5651 5648 5644 5641 5637 5633 5629 5626 5623 5620 5617 5615 5613 5611 5610 5608 5607 5607 5606 5606 5606
5632 5634 5635 5637 5638 5639 5641 5642 5643 5645 5647 5648 5650 5651 5653 5654 5656 5657 5659 5660 5662 5663 5664 5666 5667 5668 5669 5670 5671 5672 5673 5674 5676 5676 5677 5678 5678 5679 5679 5679 5679 5679 5679 5679 5679 5679 5679 5678 5678 5677 5677 5676 5675 5673 5672 5671 5669 5668 5666 5664 5662 5659 5657 5654 5652 5649 5646 5642 5639 5635 5631 5627 5623 5620 5616 5613 5610 5608 5606 5604 5602 5601 5600 5599 5598 5598
5630 5631 5633 5634 5635 5637 5638 5640 5641 5643 5644 5646 5648 5649 5651 5652 5654 5655 5657 5658 5659 5661 5662 5663 5664 5666 5667 5668 5669 5670 5671 5672 5674 5674 5675 5676 5676 5676 5677 5677 5677 5677 5678 5678 5677 5677 5677 5677 5677 5676 5675 5674 5673 5671 5670 5669 5667 5666 5664 5662 5660 5658 5655 5652 5650 5647 5644 5641 5637 5634 5630 5625 5621 5617 5614 5611 5607 5604 5601 5599 5597 5596 5594 5593 5591 5591